| time (UTC) | temp F | wind direction | speed MPH | gust MPH | rain 1hr in | rain 24hr in | rain mn in | humidity % | barometer mb |
| 20260510033508 | 62 | 273 | 1.0 | 1.0 | 0.00 | 0.00 | 0.00 | 75 | 1010.6 |
| 20260510033006 | 63 | 281 | 0.0 | 1.0 | 0.00 | 0.00 | 0.00 | 75 | 1010.4 |
| 20260510032503 | 63 | 264 | 1.0 | 1.0 | 0.00 | 0.00 | 0.00 | 74 | 1010.4 |
| 20260510032003 | 63 | 45 | 2.0 | 2.0 | 0.00 | 0.00 | 0.00 | 73 | 1010.3 |
| 20260510031458 | 63 | 294 | 1.0 | 1.0 | 0.00 | 0.00 | 0.00 | 73 | 1010.5 |
| 20260510030954 | 63 | 292 | 1.0 | 1.0 | 0.00 | 0.00 | 0.00 | 73 | 1010.4 |
| 20260510030450 | 64 | 257 | 0.0 | 0.0 | 0.00 | 0.00 | 0.00 | 72 | 1010.3 |
| 20260510025947 | 64 | 254 | 0.0 | 0.0 | 0.00 | 0.00 | 0.00 | 72 | 1010.3 |
| 20260510025444 | 65 | 288 | 1.0 | 2.0 | 0.00 | 0.00 | 0.00 | 71 | 1010.1 |
| 20260510024942 | 65 | 324 | 2.0 | 2.0 | 0.00 | 0.00 | 0.00 | 70 | 1010.0 |
| 20260510024438 | 66 | 20 | 1.0 | 2.0 | 0.00 | 0.00 | 0.00 | 70 | 1010.1 |
| 20260510023934 | 66 | 345 | 1.0 | 2.0 | 0.00 | 0.00 | 0.00 | 69 | 1010.2 |
| 20260510023431 | 66 | 260 | 0.0 | 0.0 | 0.00 | 0.00 | 0.00 | 69 | 1010.1 |
| 20260510022928 | 66 | 36 | 2.0 | 2.0 | 0.00 | 0.00 | 0.00 | 68 | 1010.1 |
| 20260510022427 | 66 | 294 | 1.0 | 1.0 | 0.00 | 0.00 | 0.00 | 68 | 1010.1 |
| 20260510021926 | 67 | 263 | 1.0 | 1.0 | 0.00 | 0.00 | 0.00 | 68 | 1010.0 |
| 20260510021424 | 67 | 130 | 1.0 | 1.0 | 0.00 | 0.00 | 0.00 | 68 | 1009.9 |
| 20260510020921 | 67 | 261 | 1.0 | 1.0 | 0.00 | 0.00 | 0.00 | 68 | 1009.9 |
| 20260510020421 | 66 | 279 | 0.0 | 0.0 | 0.00 | 0.00 | 0.00 | 68 | 1009.9 |
| 20260510015917 | 66 | 245 | 0.0 | 0.0 | 0.00 | 0.00 | 0.00 | 68 | 1009.8 |
| 20260510015413 | 66 | 258 | 0.0 | 0.0 | 0.00 | 0.00 | 0.00 | 68 | 1009.9 |
| 20260510014908 | 66 | 239 | 0.0 | 0.0 | 0.00 | 0.00 | 0.00 | 68 | 1009.8 |
| 20260510014406 | 66 | 257 | 0.0 | 0.0 | 0.00 | 0.00 | 0.00 | 68 | 1009.8 |
| 20260510013902 | 66 | 255 | 0.0 | 0.0 | 0.00 | 0.00 | 0.00 | 68 | 1009.6 |
| 20260510013357 | 67 | 250 | 1.0 | 1.0 | 0.00 | 0.00 | 0.00 | 67 | 1009.6 |
| 20260510012852 | 67 | 168 | 1.0 | 2.0 | 0.00 | 0.00 | 0.00 | 67 | 1009.5 |
| 20260510012347 | 67 | 293 | 1.0 | 1.0 | 0.00 | 0.00 | 0.00 | 67 | 1009.4 |
| 20260510011842 | 67 | 193 | 2.0 | 2.0 | 0.00 | 0.00 | 0.00 | 67 | 1009.3 |
| 20260510011338 | 67 | 271 | 0.0 | 0.0 | 0.00 | 0.00 | 0.00 | 67 | 1009.1 |
| 20260510010834 | 67 | 25 | 1.0 | 2.0 | 0.00 | 0.00 | 0.00 | 67 | 1009.1 |
| 20260510010332 | 68 | 47 | 2.0 | 3.0 | 0.00 | 0.00 | 0.00 | 66 | 1009.1 |
| 20260510005828 | 68 | 53 | 3.0 | 3.0 | 0.00 | 0.00 | 0.00 | 66 | 1008.9 |
| 20260510005324 | 68 | 321 | 2.0 | 2.0 | 0.00 | 0.00 | 0.00 | 65 | 1009.0 |
| 20260510004822 | 68 | 12 | 1.0 | 1.0 | 0.00 | 0.00 | 0.00 | 64 | 1009.1 |
| 20260510004320 | 68 | 268 | 1.0 | 1.0 | 0.00 | 0.00 | 0.00 | 63 | 1008.8 |
| 20260510003817 | 69 | 26 | 3.0 | 3.0 | 0.00 | 0.00 | 0.00 | 62 | 1008.9 |
| 20260510003314 | 69 | 345 | 1.0 | 1.0 | 0.00 | 0.00 | 0.00 | 60 | 1008.7 |
| 20260510002813 | 70 | 268 | 0.0 | 1.0 | 0.00 | 0.00 | 0.00 | 56 | 1008.8 |
| 20260510002310 | 71 | 256 | 0.0 | 0.0 | 0.00 | 0.00 | 0.00 | 55 | 1008.7 |
| 20260510001806 | 71 | 243 | 1.0 | 1.0 | 0.00 | 0.00 | 0.00 | 54 | 1008.7 |
| 20260510001305 | 72 | 240 | 0.0 | 0.0 | 0.00 | 0.00 | 0.00 | 53 | 1008.7 |
| 20260510000800 | 72 | 229 | 1.0 | 1.0 | 0.00 | 0.00 | 0.00 | 52 | 1008.5 |
| 20260510000258 | 72 | 242 | 0.0 | 1.0 | 0.00 | 0.00 | 0.00 | 51 | 1008.7 |
| 20260509235755 | 73 | 246 | 0.0 | 0.0 | 0.00 | 0.00 | 0.00 | 51 | 1008.6 |
| 20260509235251 | 73 | 235 | 1.0 | 1.0 | 0.00 | 0.00 | 0.00 | 51 | 1008.7 |
| 20260509234747 | 73 | 220 | 1.0 | 1.0 | 0.00 | 0.00 | 0.00 | 50 | 1008.5 |
| 20260509234244 | 73 | 245 | 1.0 | 1.0 | 0.00 | 0.00 | 0.00 | 50 | 1008.3 |
| 20260509233743 | 73 | 223 | 1.0 | 1.0 | 0.00 | 0.00 | 0.00 | 50 | 1008.5 |
| 20260509233240 | 73 | 249 | 0.0 | 0.0 | 0.00 | 0.00 | 0.00 | 50 | 1008.3 |
| 20260509232736 | 73 | 240 | 1.0 | 1.0 | 0.00 | 0.00 | 0.00 | 50 | 1008.2 |
| 20260509232233 | 73 | 234 | 1.0 | 1.0 | 0.00 | 0.00 | 0.00 | 50 | 1008.4 |
| 20260509231729 | 74 | 224 | 2.0 | 3.0 | 0.00 | 0.00 | 0.00 | 50 | 1008.3 |
| 20260509231226 | 73 | 244 | 1.0 | 1.0 | 0.00 | 0.00 | 0.00 | 50 | 1008.2 |
| 20260509230724 | 73 | 194 | 4.0 | 4.0 | 0.00 | 0.00 | 0.00 | 50 | 1008.2 |
| 20260509230221 | 73 | 145 | 3.0 | 3.0 | 0.00 | 0.00 | 0.00 | 50 | 1008.4 |
| 20260509225716 | 73 | 225 | 1.0 | 1.0 | 0.00 | 0.00 | 0.00 | 50 | 1008.4 |
| 20260509225212 | 73 | 224 | 1.0 | 1.0 | 0.00 | 0.00 | 0.00 | 50 | 1008.4 |
| 20260509224708 | 74 | 170 | 3.0 | 3.0 | 0.00 | 0.00 | 0.00 | 49 | 1008.3 |
| 20260509224205 | 74 | 247 | 1.0 | 1.0 | 0.00 | 0.00 | 0.00 | 50 | 1008.3 |
| 20260509223702 | 74 | 271 | 2.0 | 3.0 | 0.00 | 0.00 | 0.00 | 49 | 1008.2 |
| 20260509223159 | 74 | 243 | 1.0 | 2.0 | 0.00 | 0.00 | 0.00 | 49 | 1008.3 |
| 20260509222656 | 74 | 207 | 4.0 | 6.0 | 0.00 | 0.00 | 0.00 | 49 | 1008.3 |
| 20260509222152 | 74 | 179 | 4.0 | 4.0 | 0.00 | 0.00 | 0.00 | 49 | 1008.3 |
| 20260509221647 | 74 | 254 | 3.0 | 4.0 | 0.00 | 0.00 | 0.00 | 49 | 1008.3 |
| 20260509221143 | 74 | 201 | 3.0 | 3.0 | 0.00 | 0.00 | 0.00 | 49 | 1008.4 |
| 20260509220639 | 75 | 154 | 2.0 | 3.0 | 0.00 | 0.00 | 0.00 | 47 | 1008.3 |
| 20260509220136 | 76 | 179 | 3.0 | 3.0 | 0.00 | 0.00 | 0.00 | 46 | 1008.4 |
| 20260509215632 | 76 | 247 | 5.0 | 7.0 | 0.00 | 0.00 | 0.00 | 46 | 1008.5 |
| 20260509215129 | 75 | 255 | 1.0 | 2.0 | 0.00 | 0.00 | 0.00 | 46 | 1008.4 |
| 20260509214626 | 74 | 262 | 2.0 | 2.0 | 0.00 | 0.00 | 0.00 | 47 | 1008.5 |
| 20260509214123 | 75 | 252 | 4.0 | 6.0 | 0.00 | 0.00 | 0.00 | 47 | 1008.4 |
| 20260509213619 | 77 | 254 | 3.0 | 3.0 | 0.00 | 0.00 | 0.00 | 45 | 1008.4 |
| 20260509213115 | 76 | 225 | 3.0 | 3.0 | 0.00 | 0.00 | 0.00 | 45 | 1008.4 |
| 20260509212613 | 75 | 276 | 2.0 | 2.0 | 0.00 | 0.00 | 0.00 | 46 | 1008.3 |
| 20260509212110 | 76 | 179 | 4.0 | 6.0 | 0.00 | 0.00 | 0.00 | 46 | 1008.3 |
| 20260509211605 | 76 | 216 | 3.0 | 4.0 | 0.00 | 0.00 | 0.00 | 45 | 1008.5 |
| 20260509211102 | 76 | 135 | 3.0 | 4.0 | 0.00 | 0.00 | 0.00 | 46 | 1008.3 |
| 20260509210553 | 76 | 232 | 3.0 | 4.0 | 0.00 | 0.00 | 0.00 | 46 | 1008.3 |
| 20260509210050 | 76 | 112 | 3.0 | 6.0 | 0.00 | 0.00 | 0.00 | 46 | 1008.3 |
| 20260509205543 | 75 | 285 | 5.0 | 7.0 | 0.00 | 0.00 | 0.00 | 47 | 1008.1 |
| 20260509205039 | 74 | 303 | 2.0 | 3.0 | 0.00 | 0.00 | 0.00 | 48 | 1008.5 |
| 20260509204536 | 74 | 238 | 3.0 | 4.0 | 0.00 | 0.00 | 0.00 | 48 | 1008.1 |
| 20260509204032 | 74 | 231 | 3.0 | 3.0 | 0.00 | 0.00 | 0.00 | 49 | 1008.3 |
| 20260509203528 | 74 | 230 | 1.0 | 1.0 | 0.00 | 0.00 | 0.00 | 49 | 1008.1 |
| 20260509203027 | 74 | 233 | 2.0 | 2.0 | 0.00 | 0.00 | 0.00 | 49 | 1008.2 |
| 20260509202527 | 75 | 213 | 3.0 | 4.0 | 0.00 | 0.00 | 0.00 | 48 | 1008.1 |
| 20260509202022 | 76 | 195 | 4.0 | 6.0 | 0.00 | 0.00 | 0.00 | 47 | 1008.2 |
| 20260509201517 | 76 | 252 | 4.0 | 6.0 | 0.00 | 0.00 | 0.00 | 46 | 1008.4 |
| 20260509201015 | 76 | 309 | 2.0 | 4.0 | 0.00 | 0.00 | 0.00 | 47 | 1008.2 |
| 20260509200510 | 75 | 258 | 5.0 | 7.0 | 0.00 | 0.00 | 0.00 | 48 | 1008.6 |
| 20260509200007 | 75 | 256 | 5.0 | 7.0 | 0.00 | 0.00 | 0.00 | 48 | 1008.5 |
| 20260509195502 | 74 | 257 | 2.0 | 2.0 | 0.00 | 0.00 | 0.00 | 50 | 1008.5 |
| 20260509195001 | 74 | 352 | 1.0 | 2.0 | 0.00 | 0.00 | 0.00 | 49 | 1009.0 |
| 20260509194457 | 73 | 258 | 2.0 | 4.0 | 0.00 | 0.00 | 0.00 | 50 | 1008.9 |
| 20260509193955 | 73 | 249 | 7.0 | 8.0 | 0.00 | 0.00 | 0.00 | 50 | 1008.9 |
| 20260509193454 | 72 | 306 | 4.0 | 6.0 | 0.00 | 0.00 | 0.00 | 52 | 1009.2 |
| 20260509192950 | 71 | 270 | 6.0 | 9.0 | 0.00 | 0.00 | 0.00 | 52 | 1009.3 |
| 20260509192447 | 72 | 316 | 7.0 | 9.0 | 0.00 | 0.00 | 0.00 | 53 | 1009.4 |
| 20260509191942 | 71 | 224 | 6.0 | 7.0 | 0.00 | 0.00 | 0.00 | 55 | 1009.3 |
| 20260509191438 | 70 | 266 | 3.0 | 6.0 | 0.00 | 0.00 | 0.00 | 57 | 1009.3 |
| 20260509190934 | 70 | 265 | 2.0 | 2.0 | 0.00 | 0.00 | 0.00 | 59 | 1009.3 |
| 20260509190431 | 69 | 241 | 2.0 | 3.0 | 0.00 | 0.00 | 0.00 | 59 | 1009.2 |
| 20260509185929 | 69 | 281 | 5.0 | 7.0 | 0.00 | 0.00 | 0.00 | 60 | 1009.3 |
| 20260509185426 | 69 | 244 | 4.0 | 6.0 | 0.00 | 0.00 | 0.00 | 59 | 1009.3 |
| 20260509184922 | 69 | 241 | 3.0 | 3.0 | 0.00 | 0.00 | 0.00 | 60 | 1009.3 |
| 20260509184420 | 69 | 254 | 3.0 | 3.0 | 0.00 | 0.00 | 0.00 | 63 | 1009.6 |
| 20260509183916 | 69 | 229 | 1.0 | 2.0 | 0.00 | 0.00 | 0.00 | 64 | 1009.9 |
| 20260509183411 | 69 | 245 | 2.0 | 3.0 | 0.00 | 0.00 | 0.00 | 62 | 1009.7 |
| 20260509182909 | 68 | 197 | 1.0 | 1.0 | 0.00 | 0.00 | 0.00 | 62 | 1009.7 |
| 20260509182405 | 68 | 235 | 5.0 | 8.0 | 0.00 | 0.00 | 0.00 | 60 | 1009.8 |
| 20260509181903 | 68 | 186 | 2.0 | 2.0 | 0.00 | 0.00 | 0.00 | 60 | 1010.0 |
| 20260509181400 | 70 | 190 | 4.0 | 8.0 | 0.00 | 0.00 | 0.00 | 56 | 1009.8 |
| 20260509180857 | 70 | 209 | 1.0 | 3.0 | 0.00 | 0.00 | 0.00 | 52 | 1010.1 |
| 20260509180352 | 70 | 236 | 2.0 | 2.0 | 0.00 | 0.00 | 0.00 | 51 | 1009.9 |
| 20260509175849 | 70 | 172 | 4.0 | 6.0 | 0.00 | 0.00 | 0.00 | 51 | 1010.1 |
| 20260509175345 | 70 | 251 | 4.0 | 8.0 | 0.00 | 0.00 | 0.00 | 51 | 1010.1 |
| 20260509174841 | 71 | 221 | 2.0 | 4.0 | 0.00 | 0.00 | 0.00 | 51 | 1010.0 |
| 20260509174337 | 71 | 222 | 7.0 | 8.0 | 0.00 | 0.00 | 0.00 | 50 | 1010.0 |
| 20260509173833 | 71 | 87 | 6.0 | 9.0 | 0.00 | 0.00 | 0.00 | 49 | 1010.1 |
| 20260509173329 | 71 | 162 | 4.0 | 7.0 | 0.00 | 0.00 | 0.00 | 49 | 1010.2 |
| 20260509172825 | 71 | 260 | 3.0 | 3.0 | 0.00 | 0.00 | 0.00 | 49 | 1010.2 |
| 20260509172322 | 71 | 257 | 4.0 | 6.0 | 0.00 | 0.00 | 0.00 | 50 | 1010.3 |
| 20260509171819 | 71 | 256 | 2.0 | 3.0 | 0.00 | 0.00 | 0.00 | 50 | 1010.4 |
| 20260509171314 | 71 | 226 | 2.0 | 3.0 | 0.00 | 0.00 | 0.00 | 50 | 1010.3 |
| 20260509170811 | 71 | 253 | 2.0 | 2.0 | 0.00 | 0.00 | 0.00 | 50 | 1010.3 |
| 20260509170306 | 70 | 248 | 5.0 | 7.0 | 0.00 | 0.00 | 0.00 | 51 | 1010.6 |
| 20260509165806 | 70 | 246 | 6.0 | 8.0 | 0.00 | 0.00 | 0.00 | 51 | 1010.4 |
| 20260509165301 | 70 | 270 | 6.0 | 8.0 | 0.00 | 0.00 | 0.00 | 51 | 1010.6 |
| 20260509164757 | 70 | 215 | 4.0 | 7.0 | 0.00 | 0.00 | 0.00 | 50 | 1010.7 |
| 20260509164253 | 69 | 250 | 8.0 | 9.0 | 0.00 | 0.00 | 0.00 | 52 | 1010.5 |
| 20260509163750 | 69 | 233 | 3.0 | 3.0 | 0.00 | 0.00 | 0.00 | 52 | 1010.7 |
| 20260509163246 | 68 | 261 | 1.0 | 2.0 | 0.00 | 0.00 | 0.00 | 53 | 1010.7 |
| 20260509162746 | 69 | 268 | 1.0 | 2.0 | 0.00 | 0.00 | 0.00 | 53 | 1010.7 |
| 20260509162245 | 68 | 271 | 2.0 | 3.0 | 0.00 | 0.00 | 0.00 | 53 | 1010.7 |
| 20260509161741 | 68 | 234 | 3.0 | 4.0 | 0.00 | 0.00 | 0.00 | 53 | 1010.8 |
| 20260509161237 | 68 | 266 | 9.0 | 9.0 | 0.00 | 0.00 | 0.00 | 54 | 1010.8 |
| 20260509160732 | 68 | 253 | 3.0 | 4.0 | 0.00 | 0.00 | 0.00 | 54 | 1010.8 |
| 20260509160229 | 68 | 248 | 4.0 | 7.0 | 0.00 | 0.00 | 0.00 | 54 | 1010.6 |
| 20260509155724 | 68 | 292 | 3.0 | 6.0 | 0.00 | 0.00 | 0.00 | 54 | 1011.0 |
| 20260509155221 | 68 | 259 | 6.0 | 8.0 | 0.00 | 0.00 | 0.00 | 53 | 1011.0 |
| 20260509154717 | 68 | 288 | 2.0 | 2.0 | 0.00 | 0.00 | 0.00 | 53 | 1011.0 |
| 20260509154214 | 69 | 254 | 2.0 | 3.0 | 0.00 | 0.00 | 0.00 | 52 | 1011.1 |
| 20260509153712 | 69 | 313 | 6.0 | 9.0 | 0.00 | 0.00 | 0.00 | 51 | 1011.0 |
| 20260509153208 | 69 | 254 | 3.0 | 6.0 | 0.00 | 0.00 | 0.00 | 52 | 1011.1 |
| 20260509152704 | 69 | 220 | 3.0 | 4.0 | 0.00 | 0.00 | 0.00 | 52 | 1011.0 |
| 20260509152201 | 68 | 270 | 6.0 | 9.0 | 0.00 | 0.00 | 0.00 | 53 | 1010.7 |
| 20260509151657 | 68 | 262 | 4.0 | 7.0 | 0.00 | 0.00 | 0.00 | 54 | 1011.2 |
| 20260509151154 | 68 | 208 | 9.0 | 11.0 | 0.00 | 0.00 | 0.00 | 53 | 1011.3 |
| 20260509150652 | 67 | 247 | 4.0 | 4.0 | 0.00 | 0.00 | 0.00 | 54 | 1011.2 |
| 20260509150150 | 67 | 265 | 5.0 | 8.0 | 0.00 | 0.00 | 0.00 | 54 | 1011.1 |
| 20260509145646 | 66 | 263 | 2.0 | 4.0 | 0.00 | 0.00 | 0.00 | 55 | 1011.4 |
| 20260509145142 | 65 | 277 | 3.0 | 4.0 | 0.00 | 0.00 | 0.00 | 58 | 1011.6 |
| 20260509144638 | 64 | 262 | 3.0 | 4.0 | 0.00 | 0.00 | 0.00 | 58 | 1011.5 |
| 20260509144136 | 64 | 255 | 6.0 | 8.0 | 0.00 | 0.00 | 0.00 | 58 | 1011.6 |
| 20260509143633 | 64 | 261 | 5.0 | 6.0 | 0.00 | 0.00 | 0.00 | 58 | 1011.7 |
| 20260509143130 | 64 | 267 | 2.0 | 3.0 | 0.00 | 0.00 | 0.00 | 58 | 1011.9 |
| 20260509142626 | 63 | 242 | 4.0 | 4.0 | 0.00 | 0.00 | 0.00 | 59 | 1011.9 |
| 20260509142122 | 63 | 261 | 3.0 | 4.0 | 0.00 | 0.00 | 0.00 | 60 | 1011.8 |
| 20260509141618 | 63 | 299 | 2.0 | 2.0 | 0.00 | 0.00 | 0.00 | 60 | 1011.9 |
| 20260509141115 | 62 | 138 | 1.0 | 2.0 | 0.00 | 0.00 | 0.00 | 61 | 1011.8 |
| 20260509140612 | 62 | 266 | 1.0 | 2.0 | 0.00 | 0.00 | 0.00 | 61 | 1011.8 |
| 20260509140110 | 62 | 254 | 2.0 | 3.0 | 0.00 | 0.00 | 0.00 | 61 | 1011.7 |
| 20260509135607 | 62 | 260 | 4.0 | 6.0 | 0.00 | 0.00 | 0.00 | 60 | 1011.8 |
| 20260509135105 | 62 | 240 | 6.0 | 8.0 | 0.00 | 0.00 | 0.00 | 59 | 1011.8 |
| 20260509134601 | 62 | 250 | 0.0 | 1.0 | 0.00 | 0.00 | 0.00 | 61 | 1012.0 |
| 20260509134059 | 62 | 260 | 3.0 | 4.0 | 0.00 | 0.00 | 0.00 | 61 | 1011.8 |
| 20260509133555 | 62 | 235 | 2.0 | 3.0 | 0.00 | 0.00 | 0.00 | 60 | 1011.7 |
| 20260509133053 | 61 | 252 | 3.0 | 4.0 | 0.00 | 0.00 | 0.00 | 61 | 1011.8 |
| 20260509132551 | 61 | 232 | 4.0 | 4.0 | 0.00 | 0.00 | 0.00 | 62 | 1011.9 |
| 20260509132049 | 61 | 260 | 3.0 | 3.0 | 0.00 | 0.00 | 0.00 | 61 | 1012.0 |
| 20260509131545 | 61 | 237 | 2.0 | 2.0 | 0.00 | 0.00 | 0.00 | 61 | 1012.0 |
| 20260509131042 | 61 | 239 | 3.0 | 6.0 | 0.00 | 0.00 | 0.00 | 61 | 1012.0 |
| 20260509130537 | 61 | 269 | 8.0 | 10.0 | 0.00 | 0.00 | 0.00 | 61 | 1011.7 |
| 20260509130035 | 61 | 212 | 4.0 | 6.0 | 0.00 | 0.00 | 0.00 | 61 | 1011.9 |
| 20260509125531 | 61 | 174 | 8.0 | 11.0 | 0.00 | 0.00 | 0.00 | 61 | 1011.8 |
| 20260509125028 | 61 | 314 | 6.0 | 8.0 | 0.00 | 0.00 | 0.00 | 61 | 1011.8 |
| 20260509124525 | 61 | 218 | 7.0 | 8.0 | 0.00 | 0.00 | 0.00 | 60 | 1011.7 |
| 20260509124022 | 60 | 250 | 6.0 | 9.0 | 0.00 | 0.00 | 0.00 | 61 | 1011.7 |
| 20260509123520 | 60 | 222 | 5.0 | 6.0 | 0.00 | 0.00 | 0.00 | 61 | 1011.8 |
| 20260509123015 | 60 | 241 | 2.0 | 4.0 | 0.00 | 0.00 | 0.00 | 61 | 1011.4 |
| 20260509122512 | 60 | 240 | 1.0 | 2.0 | 0.00 | 0.00 | 0.00 | 61 | 1011.8 |
| 20260509122009 | 60 | 216 | 2.0 | 3.0 | 0.00 | 0.00 | 0.00 | 61 | 1011.7 |
| 20260509121506 | 60 | 220 | 3.0 | 3.0 | 0.00 | 0.00 | 0.00 | 60 | 1011.8 |
| 20260509121004 | 60 | 258 | 5.0 | 6.0 | 0.00 | 0.00 | 0.00 | 61 | 1011.9 |
| 20260509120501 | 60 | 152 | 4.0 | 7.0 | 0.00 | 0.00 | 0.00 | 60 | 1011.8 |
| 20260509115959 | 60 | 107 | 3.0 | 3.0 | 0.00 | 0.00 | 0.00 | 60 | 1011.7 |
| 20260509115456 | 60 | 93 | 3.0 | 3.0 | 0.00 | 0.00 | 0.00 | 60 | 1011.9 |
| 20260509114954 | 60 | 235 | 2.0 | 3.0 | 0.00 | 0.00 | 0.00 | 59 | 1011.8 |
| 20260509114452 | 60 | 77 | 6.0 | 8.0 | 0.00 | 0.00 | 0.00 | 58 | 1011.9 |
| 20260509113951 | 60 | 199 | 4.0 | 8.0 | 0.00 | 0.00 | 0.00 | 57 | 1011.8 |
| 20260509113448 | 60 | 152 | 4.0 | 7.0 | 0.00 | 0.00 | 0.00 | 57 | 1011.7 |
| 20260509112944 | 60 | 193 | 3.0 | 6.0 | 0.00 | 0.00 | 0.00 | 56 | 1011.6 |
| 20260509112442 | 60 | 128 | 4.0 | 4.0 | 0.00 | 0.00 | 0.00 | 56 | 1011.6 |
| 20260509111938 | 60 | 226 | 2.0 | 3.0 | 0.00 | 0.00 | 0.00 | 56 | 1011.8 |
| 20260509111436 | 60 | 176 | 2.0 | 3.0 | 0.00 | 0.00 | 0.00 | 56 | 1011.7 |
| 20260509110933 | 60 | 216 | 4.0 | 4.0 | 0.00 | 0.00 | 0.00 | 56 | 1011.6 |
| 20260509110429 | 60 | 155 | 6.0 | 9.0 | 0.00 | 0.00 | 0.00 | 56 | 1011.5 |
| 20260509105927 | 60 | 212 | 4.0 | 8.0 | 0.00 | 0.00 | 0.00 | 56 | 1011.7 |
| 20260509105426 | 60 | 242 | 1.0 | 2.0 | 0.00 | 0.00 | 0.00 | 55 | 1011.5 |
| 20260509104922 | 60 | 225 | 5.0 | 8.0 | 0.00 | 0.00 | 0.00 | 55 | 1011.7 |
| 20260509104419 | 61 | 158 | 4.0 | 4.0 | 0.00 | 0.00 | 0.00 | 55 | 1011.4 |
| 20260509103917 | 60 | 272 | 3.0 | 4.0 | 0.00 | 0.00 | 0.00 | 53 | 1011.5 |
| 20260509103413 | 60 | 227 | 5.0 | 7.0 | 0.00 | 0.00 | 0.00 | 52 | 1011.4 |
| 20260509102912 | 60 | 254 | 4.0 | 8.0 | 0.00 | 0.00 | 0.00 | 51 | 1011.2 |
| 20260509102409 | 60 | 234 | 2.0 | 2.0 | 0.00 | 0.00 | 0.00 | 51 | 1011.4 |
| 20260509101905 | 60 | 233 | 5.0 | 8.0 | 0.00 | 0.00 | 0.00 | 51 | 1011.2 |
| 20260509101401 | 60 | 227 | 2.0 | 2.0 | 0.00 | 0.00 | 0.00 | 51 | 1011.3 |
| 20260509100859 | 60 | 254 | 3.0 | 3.0 | 0.00 | 0.00 | 0.00 | 51 | 1011.1 |
| 20260509100356 | 60 | 229 | 2.0 | 6.0 | 0.00 | 0.00 | 0.00 | 51 | 1011.2 |
| 20260509095852 | 60 | 280 | 3.0 | 3.0 | 0.00 | 0.00 | 0.00 | 51 | 1011.2 |
| 20260509095350 | 60 | 191 | 4.0 | 4.0 | 0.00 | 0.00 | 0.00 | 51 | 1011.1 |
| 20260509094847 | 60 | 234 | 1.0 | 1.0 | 0.00 | 0.00 | 0.00 | 51 | 1011.2 |
| 20260509094343 | 61 | 251 | 0.0 | 1.0 | 0.00 | 0.00 | 0.00 | 50 | 1011.0 |
| 20260509093841 | 61 | 260 | 1.0 | 1.0 | 0.00 | 0.00 | 0.00 | 50 | 1011.1 |
| 20260509093338 | 61 | 216 | 2.0 | 3.0 | 0.00 | 0.00 | 0.00 | 50 | 1011.1 |
| 20260509092837 | 61 | 231 | 2.0 | 3.0 | 0.00 | 0.00 | 0.00 | 50 | 1011.2 |
| 20260509092334 | 61 | 251 | 2.0 | 2.0 | 0.00 | 0.00 | 0.00 | 50 | 1011.1 |
| 20260509091832 | 61 | 234 | 2.0 | 2.0 | 0.00 | 0.00 | 0.00 | 51 | 1011.3 |
| 20260509091329 | 61 | 248 | 1.0 | 1.0 | 0.00 | 0.00 | 0.00 | 51 | 1011.3 |
| 20260509090826 | 61 | 135 | 2.0 | 3.0 | 0.00 | 0.00 | 0.00 | 51 | 1011.4 |
| 20260509090323 | 61 | 225 | 2.0 | 3.0 | 0.00 | 0.00 | 0.00 | 51 | 1011.5 |
| 20260509085820 | 61 | 235 | 1.0 | 1.0 | 0.00 | 0.00 | 0.00 | 51 | 1011.4 |
| 20260509085318 | 61 | 187 | 2.0 | 2.0 | 0.00 | 0.00 | 0.00 | 51 | 1011.5 |
| 20260509084814 | 61 | 299 | 3.0 | 4.0 | 0.00 | 0.00 | 0.00 | 50 | 1011.4 |
| 20260509084311 | 60 | 278 | 3.0 | 4.0 | 0.00 | 0.00 | 0.00 | 52 | 1011.5 |
| 20260509083809 | 60 | 260 | 1.0 | 2.0 | 0.00 | 0.00 | 0.00 | 53 | 1011.5 |
| 20260509083305 | 60 | 233 | 3.0 | 3.0 | 0.00 | 0.00 | 0.00 | 53 | 1011.7 |
| 20260509082802 | 60 | 242 | 1.0 | 1.0 | 0.00 | 0.00 | 0.00 | 53 | 1011.6 |
| 20260509082258 | 60 | 253 | 2.0 | 3.0 | 0.00 | 0.00 | 0.00 | 53 | 1011.6 |
| 20260509081755 | 60 | 251 | 4.0 | 4.0 | 0.00 | 0.00 | 0.00 | 54 | 1011.7 |
| 20260509081253 | 60 | 255 | 0.0 | 1.0 | 0.00 | 0.00 | 0.00 | 54 | 1011.8 |
| 20260509080751 | 60 | 52 | 2.0 | 3.0 | 0.00 | 0.00 | 0.00 | 53 | 1011.7 |
| 20260509080248 | 60 | 260 | 2.0 | 3.0 | 0.00 | 0.00 | 0.00 | 53 | 1011.9 |
| 20260509075747 | 60 | 173 | 2.0 | 4.0 | 0.00 | 0.00 | 0.00 | 53 | 1011.8 |
| 20260509075244 | 60 | 218 | 2.0 | 3.0 | 0.00 | 0.00 | 0.00 | 52 | 1012.0 |
| 20260509074740 | 60 | 255 | 3.0 | 4.0 | 0.00 | 0.00 | 0.00 | 52 | 1012.0 |
| 20260509074238 | 60 | 240 | 4.0 | 7.0 | 0.00 | 0.00 | 0.00 | 52 | 1012.1 |
| 20260509073734 | 60 | 184 | 2.0 | 3.0 | 0.00 | 0.00 | 0.00 | 52 | 1012.0 |
| 20260509073231 | 60 | 161 | 3.0 | 3.0 | 0.00 | 0.00 | 0.00 | 53 | 1012.4 |
| 20260509072727 | 60 | 242 | 0.0 | 1.0 | 0.00 | 0.00 | 0.00 | 53 | 1012.0 |
| 20260509072224 | 60 | 235 | 1.0 | 1.0 | 0.00 | 0.00 | 0.00 | 53 | 1012.0 |
| 20260509071721 | 60 | 222 | 1.0 | 2.0 | 0.00 | 0.00 | 0.00 | 53 | 1011.9 |
| 20260509071218 | 60 | 238 | 2.0 | 4.0 | 0.00 | 0.00 | 0.00 | 53 | 1012.0 |
| 20260509070715 | 60 | 228 | 1.0 | 2.0 | 0.00 | 0.00 | 0.00 | 52 | 1012.2 |
| 20260509070211 | 60 | 247 | 4.0 | 6.0 | 0.00 | 0.00 | 0.00 | 52 | 1011.8 |
| 20260509065708 | 60 | 191 | 3.0 | 3.0 | 0.00 | 0.00 | 0.00 | 52 | 1012.0 |
| 20260509065204 | 60 | 184 | 4.0 | 7.0 | 0.00 | 0.00 | 0.00 | 52 | 1012.3 |
| 20260509064700 | 60 | 209 | 2.0 | 3.0 | 0.00 | 0.00 | 0.00 | 52 | 1012.2 |
| 20260509064158 | 60 | 225 | 1.0 | 2.0 | 0.00 | 0.00 | 0.00 | 52 | 1012.3 |
| 20260509063655 | 60 | 206 | 3.0 | 4.0 | 0.00 | 0.00 | 0.00 | 52 | 1012.4 |
| 20260509063152 | 60 | 225 | 1.0 | 2.0 | 0.00 | 0.00 | 0.00 | 52 | 1012.2 |
| 20260509062649 | 60 | 152 | 2.0 | 3.0 | 0.00 | 0.00 | 0.00 | 51 | 1012.4 |
| 20260509062146 | 60 | 227 | 2.0 | 3.0 | 0.00 | 0.00 | 0.00 | 51 | 1012.5 |
| 20260509061643 | 60 | 222 | 2.0 | 2.0 | 0.00 | 0.00 | 0.00 | 51 | 1012.6 |
| 20260509061140 | 60 | 236 | 2.0 | 3.0 | 0.00 | 0.00 | 0.00 | 51 | 1012.5 |
| 20260509060638 | 60 | 247 | 1.0 | 2.0 | 0.00 | 0.00 | 0.00 | 51 | 1012.3 |
| 20260509060134 | 60 | 257 | 2.0 | 3.0 | 0.00 | 0.00 | 0.00 | 51 | 1012.5 |
| 20260509055629 | 60 | 178 | 2.0 | 3.0 | 0.00 | 0.00 | 0.00 | 51 | 1012.3 |
| 20260509055125 | 60 | 243 | 0.0 | 0.0 | 0.00 | 0.00 | 0.00 | 51 | 1012.5 |
| 20260509054622 | 60 | 240 | 2.0 | 6.0 | 0.00 | 0.00 | 0.00 | 51 | 1012.6 |
| 20260509054120 | 60 | 182 | 2.0 | 4.0 | 0.00 | 0.00 | 0.00 | 51 | 1012.5 |
| 20260509053618 | 60 | 260 | 1.0 | 2.0 | 0.00 | 0.00 | 0.00 | 51 | 1012.4 |
| 20260509053115 | 60 | 171 | 2.0 | 3.0 | 0.00 | 0.00 | 0.00 | 51 | 1012.7 |
| 20260509052613 | 60 | 191 | 2.0 | 3.0 | 0.00 | 0.00 | 0.00 | 50 | 1012.4 |
| 20260509052110 | 60 | 209 | 2.0 | 2.0 | 0.00 | 0.00 | 0.00 | 51 | 1012.5 |
| 20260509051608 | 60 | 214 | 2.0 | 2.0 | 0.00 | 0.00 | 0.00 | 51 | 1012.6 |
| 20260509051105 | 60 | 215 | 4.0 | 4.0 | 0.00 | 0.00 | 0.00 | 51 | 1012.4 |
| 20260509050602 | 60 | 149 | 4.0 | 4.0 | 0.00 | 0.00 | 0.00 | 51 | 1012.5 |
| 20260509050058 | 60 | 204 | 2.0 | 3.0 | 0.00 | 0.00 | 0.00 | 51 | 1012.3 |
| 20260509045556 | 60 | 212 | 5.0 | 7.0 | 0.00 | 0.00 | 0.00 | 51 | 1012.6 |
| 20260509045052 | 60 | 206 | 4.0 | 6.0 | 0.00 | 0.00 | 0.00 | 51 | 1012.5 |
| 20260509044550 | 61 | 270 | 2.0 | 3.0 | 0.00 | 0.00 | 0.00 | 51 | 1012.6 |
| 20260509044047 | 61 | 169 | 2.0 | 3.0 | 0.00 | 0.00 | 0.00 | 52 | 1012.5 |
| 20260509043543 | 61 | 202 | 3.0 | 4.0 | 0.00 | 0.00 | 0.00 | 52 | 1012.6 |
| 20260509043039 | 61 | 236 | 1.0 | 1.0 | 0.00 | 0.00 | 0.00 | 51 | 1012.5 |
| 20260509042535 | 61 | 229 | 3.0 | 4.0 | 0.00 | 0.00 | 0.00 | 51 | 1012.5 |
| 20260509042032 | 61 | 286 | 2.0 | 3.0 | 0.00 | 0.00 | 0.00 | 50 | 1012.4 |
| 20260509041528 | 61 | 243 | 3.0 | 4.0 | 0.00 | 0.00 | 0.00 | 50 | 1012.4 |
| 20260509041026 | 62 | 172 | 2.0 | 2.0 | 0.00 | 0.00 | 0.00 | 50 | 1012.5 |
| 20260509040524 | 62 | 172 | 2.0 | 3.0 | 0.00 | 0.00 | 0.00 | 50 | 1012.5 |
| 20260509040021 | 62 | 243 | 3.0 | 3.0 | 0.00 | 0.00 | 0.00 | 50 | 1012.7 |
| 20260509035518 | 62 | 248 | 5.0 | 6.0 | 0.00 | 0.00 | 0.00 | 49 | 1012.6 |
| 20260509035014 | 62 | 174 | 4.0 | 7.0 | 0.00 | 0.00 | 0.00 | 48 | 1012.6 |
| 20260509034513 | 62 | 187 | 5.0 | 7.0 | 0.00 | 0.00 | 0.00 | 46 | 1012.5 |
| 20260509034009 | 63 | 173 | 4.0 | 6.0 | 0.00 | 0.00 | 0.00 | 46 | 1012.6 |